Tracking 29091 objects as of 17-Jul-2024
HD Live streaming from Space Station
objects crossing your sky now

DELTA 1 DEB

Track DELTA 1 DEB now!
10-day predictions


NORAD ID: 25270
Int'l Code: 1968-055E
Perigee: 769.3 km
Apogee: 4,675.4 km
Inclination: 120.7 °
Period: 143.8 minutes
Semi major axis: 9093 km
RCS: 0.0071 m2 (small)
Launch date: July 4, 1968
Source: United States (US)
Launch site: AIR FORCE WESTERN TEST RANGE (AFWTR)

Note: This is SATELLITE DEBRIS
Your satellite tracking list
Your tracking list is empty




NASA's NSSDC Master Catalog

Two Line Element Set (TLE):
1 25270U 68055E   24196.26771662 -.00000025  00000-0  10240-3 0  9997
2 25270 120.6588 322.3438 2147772 348.3294   7.4548 10.01186204 60317
Source of the keplerian elements: AFSPC